Location: Dealu Mare
(46.0500°N, 22.8167°E)
Time: 02:34:48
(UTC+00:00)

Daily predictions for brighter satellites

Satellite Brightness Start Highest point End
(mag) Time Altitude Azimuth Time Altitude Azimuth Time Altitude Azimuth
CZ-4C R/B 4.5 02:48:34 15° N 02:48:34 15° N 02:51:13 10° NNE
BREEZE-M DEB (TANK) 4.1 03:05:08 69° W 03:06:15 82° NNW 03:31:34 10° ENE
Cosmos 2082 Rocket 4.2 03:12:57 13° N 03:16:32 23° NE 03:20:58 10° E
Cosmos 2278 Rocket 4.1 03:15:49 10° SSE 03:20:32 28° ESE 03:25:18 10° NE
Cosmos 1833 Rocket 2.5 03:27:30 84° WNW 03:27:38 86° WSW 03:33:15 10° SSE
Cosmos 2181 Rocket 4.2 03:27:33 10° N 03:33:56 72° E 03:40:22 10° SSE
ARIANE 6 FM1 Upper Stage 3.5 03:38:08 41° SSE 03:38:08 41° SSE 03:40:49 10° SE
ATLAS 2AS CENTAUR R/B 3.6 03:39:35 21° NNW 03:43:39 42° NE 03:50:00 10° ESE
Cosmos 1943 Rocket 3.1 03:39:11 10° S 03:44:25 48° ESE 03:49:41 10° NE
FengYun 1-2 T 4.1 03:42:37 10° N 03:48:06 61° WNW 03:49:51 41° SW
IRS-1D 3.5 03:43:11 10° NNE 03:48:33 87° ESE 03:53:52 10° SSW
BREEZE-M DEB (TANK) 3.8 03:45:26 38° WNW 03:48:53 61° SW 03:52:54 10° SE
Meteor 2-10 Rocket 4.2 03:45:37 10° S 03:50:32 53° E 03:55:38 10° NNE
Cosmos 1932 4.4 03:50:49 20° SW 03:55:25 86° WNW 04:02:01 10° NE
Cosmos 1515 Rocket 3.9 04:00:36 47° SW 04:00:36 47° SW 04:04:04 10° S
Okean 3 3.7 03:57:22 19° N 04:00:06 63° E 04:04:02 10° SSE
Gblst 52 Del rocket 4.4 04:00:17 39° NW 04:02:09 60° NNE 04:07:39 10° E
BREEZE-M DEB (TANK) 3.4 04:03:27 45° NNE 04:03:27 45° NNE 04:07:04 10° E
Cosmos 2074 Rocket 4.0 03:59:29 10° S 04:05:46 83° E 04:12:06 10° N
Cosmos 44 4.3 04:02:38 20° NNW 04:06:03 48° NE 04:11:16 10° ESE
Lacrosse 5 rocket 3.2 04:06:40 16° N 04:06:40 16° N 04:08:41 10° NNE
Meteor 2-13 Rocket 4.3 04:00:49 10° NNW 04:06:56 76° W 04:13:00 10° S
Cosmos 1743 Rocket 4.3 04:03:50 10° S 04:08:09 54° E 04:12:28 10° NNE
ATLAS CENTAUR R/B 2.0 04:10:40 28° NNE 04:11:23 32° NE 04:14:07 10° ESE
COSMO-SKYMED 1 2.3 04:07:53 10° S 04:11:58 68° WSW 04:13:47 32° NNW
Timation 1 Rocket 4.3 04:08:02 20° NNW 04:12:20 87° WSW 04:18:20 10° SSE
Helios 1A Rocket 2.4 04:16:28 10° SSE 04:19:48 81° ENE 04:21:50 22° N
Nadezhda 3 Rocket 4.0 04:14:54 10° N 04:21:11 86° E 04:27:30 10° S
CZ-4 R/B 3.9 04:16:32 10° N 04:21:12 56° WNW 04:25:57 10° SSW
TIMED 4.4 04:22:04 10° SSW 04:26:16 63° WNW 04:30:30 10° NNE
IGS 5A 3.3 04:24:34 10° NNE 04:28:34 87° ESE 04:32:32 10° SSW
Okean 3 Rocket 4.1 04:24:57 10° SW 04:28:55 34° WNW 04:32:57 10° N
Okean 2 3.7 04:28:58 36° WNW 04:29:22 37° W 04:32:54 10° SSW
Cosmos 1805 Rocket 3.6 04:27:37 10° SSW 04:31:57 55° WNW 04:36:18 10° N
SeaSat 1 3.3 04:27:22 10° NE 04:32:10 51° ESE 04:36:55 10° S
USA 307 3.8 04:32:02 23° NNW 04:33:52 34° NNE 04:37:28 10° E
USA 32 4.1 04:29:09 10° S 04:34:23 83° E 04:39:39 10° N
GEOS 3 Rocket 3.7 04:29:58 10° SSE 04:35:07 62° SW 04:39:00 19° NW
RUBIN 8/PSLV 4.5 04:32:17 10° N 04:36:24 56° WNW 04:40:30 10° SSW
Sich 1 3.7 04:34:00 10° SW 04:37:42 30° WNW 04:41:24 10° NNW
CZ-4C R/B 4.4 04:33:40 10° NNW 04:38:19 21° NNE 04:43:48 10° ENE
Cosmos 1500 Rocket 3.8 04:36:20 10° SSW 04:40:29 45° WNW 04:44:44 10° N
SL-23 DEB 3.3 04:40:12 28° W 04:41:41 65° NNW 04:44:58 10° ENE
Cosmos 1269 Rocket 3.9 04:36:27 10° SSW 04:41:45 83° WNW 04:47:04 10° NNE
Cosmos 2154 Rocket 4.0 04:36:52 10° SSW 04:43:07 62° WNW 04:49:22 10° N
Cosmos 2084 4.5 04:42:44 23° WNW 04:43:40 25° NW 04:47:11 10° NNE
DMSP B5D1-3 4.5 04:39:11 10° S 04:44:11 61° WSW 04:49:12 10° NNW
Okean 1-7 3.6 04:40:30 10° N 04:44:36 56° E 04:48:40 10° SSE
Cosmos 1408 Rocket 4.1 04:42:10 10° SW 04:46:08 35° WNW 04:50:07 10° N
SJ 16-02 4.0 04:45:54 10° SSE 04:49:12 22° E 04:52:32 10° NE
Cosmos 921 Rocket 3.5 04:51:52 10° SW 04:55:49 34° WNW 04:59:44 10° N
MOS 1 Rocket 3.5 04:51:36 10° NNE 04:56:09 68° E 05:00:27 10° S
COSMOS 2406 3.8 04:51:52 10° NNW 04:57:34 60° ENE 05:03:13 10° SE
Cosmos 1763 Rocket 3.6 04:55:47 10° NNW 05:00:52 78° ENE 05:05:55 10° SSE
Cosmos 1140 Rocket 3.4 04:55:53 10° SW 05:00:54 59° WNW 05:06:00 10° NNE
Dummy Sat-01 4.5 04:57:28 10° S 05:01:06 70° W 05:04:46 10° N
Cosmos 2082 Rocket 2.2 04:55:32 10° NNW 05:01:12 73° WSW 05:06:51 10° SSE
SJ-12 4.5 04:59:24 10° NNE 05:03:10 56° E 05:06:54 10° S
Cosmos 2341 Rocket 4.4 04:57:14 10° S 05:03:34 70° E 05:09:55 10° NNE
Cosmos 2278 Rocket 2.4 04:58:52 10° SW 05:04:20 49° WNW 05:09:50 10° NNE
Landsat 7 3.8 05:00:08 10° NNE 05:04:49 87° E 05:09:28 10° SSW
Cosmos 1758 3.7 05:02:46 10° SW 05:06:10 33° WNW 05:09:35 10° N
NOSS 8 (H) 4.2 05:03:56 15° NW 05:06:19 70° SW 05:09:51 10° SSE
ARIANE 5 R/B 3.0 05:03:33 10° NNE 05:08:39 64° ESE 05:13:39 10° S
Timation 2 Rocket 4.2 05:03:43 10° SW 05:10:09 52° NW 05:16:21 10° NNE
Cosmos 1833 Rocket 4.3 05:09:13 12° W 05:10:38 13° W 05:13:05 10° WSW
Cosmos 1470 Rocket 4.1 05:06:58 10° S 05:11:11 60° E 05:15:25 10° NNE
SMAP 3.0 05:06:54 10° N 05:11:35 73° WNW 05:16:12 10° SSW
Meteor 2-19 Rocket 4.4 05:08:55 10° NNW 05:14:58 73° W 05:20:59 10° S
Gbstr 26 Del rocket 4.1 05:08:21 10° WSW 05:15:45 75° NNW 05:21:57 10° ENE
Cosmos 1484 Rocket 3.4 05:13:20 10° NNW 05:16:10 25° WNW 05:19:01 10° SW
USA 234 3.6 05:10:52 10° NE 05:17:26 71° SE 05:23:58 10° SW
Cosmos 540 Rocket 3.4 05:15:04 10° NNW 05:20:11 84° WSW 05:25:16 10° SSE
Cosmos 1862 Rocket 3.8 05:17:22 10° NNW 05:21:34 48° W 05:25:42 10° SSW
CZ-2D R/B 2.6 05:18:33 10° N 05:21:40 72° WNW 05:24:45 10° SSW
CBERS-1 4.2 05:17:13 10° N 05:22:05 47° WNW 05:26:55 10° SW
AQUARIUS 4.1 05:22:19 10° NNE 05:26:46 87° W 05:31:10 10° SSW
Lacrosse 4 Rocket 1.2 05:23:21 10° SW 05:27:16 63° WNW 05:31:10 10° NNE
BREEZE M DEB (TANK) 4.0 05:24:24 10° W 05:27:56 46° SSW 05:37:51 10° SE
Cosmos 1943 Rocket 2.9 05:23:32 10° WSW 05:28:20 30° NW 05:33:11 10° N
GRACE-FO 1 4.5 05:25:06 10° S 05:28:32 86° E 05:31:59 10° N
GRACE-FO 2 4.5 05:25:33 10° S 05:28:58 87° E 05:32:26 10° N
Cosmos 1656 Rocket 3.9 05:23:43 10° SSW 05:29:23 82° ESE 05:35:04 10° NNE
Meteor 1-15 Rocket 4.4 05:24:47 10° S 05:30:35 89° E 05:36:31 10° N
ATLAS 2AS CENTAUR R/B 3.0 05:28:11 10° NW 05:34:42 53° WSW 05:41:13 10° SSE
SL-8 Rocket 4.0 05:29:58 10° SSW 05:36:14 68° W 05:42:32 10° N
